Terminal Aerodrome Forecast
Issued by NWS

Home | Current Version | Previous Version | Text Only | Print | Product List | Glossary On
Versions: 1 2 3 4 5 6 7 8 9 10 11 12 13 14 15 16 17 18 19 20 21 22 23
000
FTUS43 KSGF 241600 AAB
TAFJLN
TAF AMD
KJLN 241615Z 2416/2512 27013G23KT P6SM SKC
     FM241900 29014G24KT P6SM SCT040
      TEMPO 2421/2423 BKN030
     FM250200 28005KT P6SM SKC=

USA.gov is the U.S. government's official web portal to all federal, state and local government web resources and services.